FENGYUN 1C DEB, 33633

Orbit data source: Space-Track

FENGYUN 1C DEB, 33633 is space debris in SSO originally from a launch on Mon, 10 May 1999 UTC launched from the Taiyaun Space Center, China (TSC). Fengyun 1C debris stems from the Chinese weather satellite Fengyun-1C, which was intentionally destroyed by a Chinese anti-satellite missile in 2007. This event dramatically increased the amount of space debris, with thousands of trackable fragments posing hazards to satellites and human spaceflight. The Fengyun 1C debris cloud has become a focal point in discussions about space sustainability and the need for international regulations to prevent the creation of new debris.

Loading next visibility...
Identifier
33633, 1999-025DDS
Orbit
SSO
Country
Flag of CNCN / PRC
Related business
Manufacturer
Unknown
Mission
Spacecraft
Bus & Motor
Unknown
Mass
Unknown
Launch date (UTC)
1999-05-10 (27 years ago)
Launch vehicle
Unknown
Launch site
Taiyaun Space Center, China (TSC)
Object type
Payload
Rocket body
Debris
Shape & HBR
Unknown shape, 0.1 m
Radar Cross Section
Small (<0.1 m²)

Expand to show TLE details & history
Last TLE update: 1 day ago

TLE from 1 day ago
0 FENGYUN 1C DEB
1 33633U 99025DDS 26207.23680765  .00003973  00000-0  17897-2 0  9993
2 33633  99.0586 311.8648 0080898 224.9731 165.9722 14.21108688939124
Epoch: 2026-07-26T05:41Z
TLE epoch observation values (Epoch: 2026-07-26T05:41:00.180Z)
Latitude
30.79102°
Longitude
-82.74662°
Altitude
882.023 km
Speed
7.385 km/s
True Right ascension
20h 25m 46s
True Declination
30° 38' 33"
Sunlit
Object was in full shadow at epoch
Visualization orbit readout
Latitude
Unknown
Longitude
Unknown
Altitude
Unknown
Speed
Unknown
Apparent Right ascension
Unknown
Apparent Declination
Unknown
Sunlit
N/A
Visualization observer readout
Local Sidereal Time
02:21:41
Azimuth
Unknown
Elevation
Unknown
Doppler factor
Unknown
Orbital elements
Apogee altitude
877.001 km
Perigee altitude
760.558 km
Semi-major axis
7,196.917 km
Eccentricity
0.00809
Inclination
99.0586°
RAAN
311.8648°
Arg. of periapsis
224.9731°
True anomaly
166.19472°
Mean anomaly
165.9722°
Eccentric anomaly
166.08368°
Mean motion
3.55487 °/min
Orbital period
101.27 mins
BSTAR
0.0017897
Loading maneuver chart data...
Computing Atmospheric mass density...

Documentation

Showing up to 5 results
|